Wind_Speed
25 23 22 22 21 20 18 17 16 15 14 14 13 13 14 15 14 13 12 12 11 10 9 9 8 9 9 9 9 9 9 9 8 8 8 8 8 8 7 6 5 4 5 5 7 9 12 13 13 14 16 14 10 6 4 2 3 3 3 5 8 9
24 23 23 22 21 20 19 19 17 16 16 16 15 14 14 14 13 12 12 12 11 10 9 9 9 10 10 10 9 9 8 8 7 7 6 6 6 6 6 6 5 4 4 6 8 10 12 13 14 16 16 13 8 6 6 4 4 4 3 5 8 10
24 23 22 22 22 21 20 20 19 18 18 17 16 15 14 14 14 13 13 12 11 10 9 9 9 9 10 9 9 9 8 7 6 6 6 5 5 5 5 5 5 5 5 6 8 10 12 13 14 17 17 13 9 6 6 5 5 4 4 6 7 9
24 23 23 22 22 21 21 21 20 19 18 17 16 15 14 15 15 14 14 13 12 10 10 10 10 10 9 9 9 9 9 8 7 6 6 5 5 4 4 4 5 5 6 8 10 11 12 13 14 17 16 13 9 5 4 4 4 3 5 7 7 9
23 23 23 22 22 21 20 19 19 18 18 17 16 16 15 16 15 14 14 13 12 11 11 10 10 10 9 8 8 8 8 8 7 7 6 5 4 4 4 4 4 6 9 11 12 13 12 12 13 16 16 12 9 6 4 4 4 2 1 3 6 8
22 22 22 22 21 20 19 18 18 18 17 16 16 16 16 16 15 14 13 12 12 11 11 10 10 10 8 8 8 7 7 7 6 6 6 5 4 4 3 4 5 7 10 11 11 9 9 10 12 15 15 12 11 10 8 7 7 5 4 3 5 7
22 23 23 23 22 20 18 16 16 17 16 16 16 16 16 15 15 13 12 12 11 11 10 10 9 9 8 7 7 6 6 5 5 5 4 5 5 5 5 5 6 7 9 9 8 7 6 8 11 13 14 14 13 12 10 9 9 8 6 6 8 8
24 25 25 23 21 19 17 16 16 16 16 16 16 17 16 14 14 14 13 12 11 10 9 9 8 7 7 6 5 5 5 4 4 4 4 4 5 6 7 6 6 7 8 7 6 6 5 7 11 12 12 15 14 12 11 9 9 9 7 7 7 6
24 25 24 23 20 18 17 17 17 18 18 16 16 16 16 15 14 14 14 12 11 9 8 8 8 7 7 7 5 4 4 4 4 4 5 4 3 5 6 6 6 6 6 5 5 6 6 8 11 10 9 11 12 12 11 8 8 8 7 7 7 7
24 23 24 24 19 17 18 19 19 20 20 18 17 16 15 16 15 14 13 11 9 9 9 9 9 8 7 6 5 3 3 4 4 4 4 4 3 3 4 5 5 5 4 4 5 5 6 8 9 8 7 8 9 8 9 8 8 8 8 8 9 8
22 22 23 23 20 19 19 19 20 21 21 19 18 16 15 15 14 13 12 10 8 8 9 9 9 8 6 5 5 4 4 5 4 4 4 4 4 3 4 5 5 4 3 3 4 4 5 6 7 7 8 8 8 6 6 7 7 7 8 9 9 9
22 23 22 22 21 20 18 18 20 21 20 19 18 17 16 15 14 14 12 10 9 8 9 9 8 7 6 5 5 5 6 6 6 5 4 4 4 3 4 5 5 4 2 3 4 4 4 5 5 7 8 8 7 5 3 5 5 5 7 9 9 9
22 24 23 22 22 21 19 19 20 20 19 18 17 16 16 15 14 13 12 11 10 10 9 8 8 7 7 6 6 6 6 6 6 6 5 5 5 4 4 5 6 4 3 4 4 4 5 4 3 6 9 7 4 3 3 4 6 6 6 8 9 8
23 25 23 22 22 21 21 20 20 20 19 17 15 14 14 14 13 12 12 12 11 10 9 8 8 7 7 7 7 7 7 6 6 6 6 5 5 5 6 6 6 5 4 5 4 5 4 3 3 5 8 8 3 3 3 3 5 6 6 8 9 7
25 25 23 23 22 22 22 21 20 20 19 16 14 12 12 12 12 12 11 12 11 11 10 8 7 7 7 7 8 8 7 5 5 6 6 6 7 7 8 7 6 5 5 5 4 4 3 2 3 3 6 8 5 3 2 2 4 5 6 8 8 6
27 26 24 22 21 22 22 20 20 18 17 15 13 11 11 11 11 11 10 10 11 10 10 8 7 7 7 8 8 8 7 5 5 6 6 6 7 8 8 7 7 6 6 5 5 5 4 4 4 4 5 7 6 3 1 2 4 5 6 8 6 6
27 26 24 23 22 22 21 20 19 17 15 14 12 11 11 11 10 10 10 10 10 10 9 9 8 8 8 8 8 8 6 4 4 5 5 5 6 7 6 7 7 7 5 5 5 6 6 6 4 5 5 6 7 4 1 3 5 5 6 7 5 6
27 25 24 23 22 21 21 20 18 17 16 13 11 11 11 11 10 10 11 11 10 9 8 8 9 10 9 8 8 6 4 4 4 5 5 5 6 6 5 7 7 6 6 6 5 6 7 7 6 7 6 6 5 4 4 5 6 6 6 6 6 6
26 25 23 23 22 22 21 20 19 17 16 14 12 12 12 11 11 11 11 10 10 9 9 9 9 10 9 7 7 6 5 5 5 6 5 5 6 6 6 8 8 7 7 6 6 6 7 7 8 8 8 7 7 6 6 7 7 7 8 7 7 8
27 26 25 25 25 24 24 22 20 19 18 16 15 13 11 11 10 11 10 10 10 9 9 9 7 8 8 8 8 7 6 5 5 6 6 6 6 6 7 9 9 8 8 8 8 8 7 7 9 10 9 9 10 10 9 8 8 8 8 8 8 8
29 27 26 27 26 26 26 24 22 21 20 18 17 14 12 12 11 11 10 9 9 7 7 7 7 7 7 7 7 6 7 6 6 6 6 7 7 7 8 10 10 9 8 8 8 9 9 8 9 11 12 11 11 11 11 10 9 8 8 8 8 9
28 27 26 25 25 26 26 24 23 21 20 18 17 14 11 12 11 11 10 8 7 7 7 8 7 7 6 6 6 6 7 7 7 7 6 7 7 7 8 9 10 10 9 9 9 9 10 9 9 10 13 13 12 11 10 11 11 9 8 8 8 9
28 27 26 25 25 25 24 23 21 19 19 17 15 11 9 9 10 11 9 8 8 8 8 8 7 7 6 6 7 6 7 7 7 7 6 7 8 8 7 8 8 8 9 9 9 9 10 9 9 10 12 12 12 12 11 10 10 9 8 8 8 8
28 28 26 25 24 24 24 22 20 18 17 15 13 11 9 9 10 10 10 9 9 8 8 7 8 8 7 7 7 7 7 7 7 7 7 7 7 7 7 8 7 7 8 8 9 10 11 10 9 10 12 11 11 13 12 10 11 10 8 8 7 7
29 29 26 25 26 26 26 24 21 20 17 16 15 13 12 11 10 9 9 10 9 8 7 7 8 8 8 8 8 8 8 7 7 7 7 7 7 7 7 7 7 8 8 7 7 9 11 11 9 10 11 11 10 9 12 15 13 10 8 8 8 7
30 29 27 27 28 29 27 25 24 22 21 20 18 15 13 11 9 8 9 10 9 8 6 5 6 4 5 8 8 8 8 7 6 6 7 7 7 7 7 6 6 7 7 8 8 9 11 12 12 12 12 11 8 6 12 19 15 11 10 8 8 7
30 30 30 31 30 29 28 27 25 23 22 20 18 15 12 10 10 11 11 10 9 8 6 4 3 2 4 8 8 9 10 8 7 6 7 7 7 8 7 6 6 6 7 8 9 9 10 12 14 14 13 12 8 6 11 16 15 15 15 11 9 8
31 31 32 32 30 29 29 28 25 23 21 18 16 15 14 13 13 13 13 11 10 9 7 5 5 4 7 8 7 9 9 9 8 7 6 6 7 8 8 7 7 7 7 8 9 8 9 12 13 13 13 11 8 9 11 11 12 15 18 17 14 11
32 33 32 31 30 29 29 27 24 22 21 18 15 14 15 15 14 14 13 12 11 10 9 7 6 9 12 10 7 7 7 7 7 6 6 7 8 8 8 7 7 8 7 8 9 8 7 10 11 11 12 11 10 13 13 10 11 13 16 20 18 16
32 32 31 30 29 29 27 25 23 21 21 19 17 16 16 15 14 13 12 11 12 11 10 8 10 12 14 12 8 7 7 7 6 5 5 7 9 9 8 7 8 7 7 7 7 8 8 9 10 10 11 12 14 16 15 14 14 14 15 18 19 19
33 32 30 29 28 27 25 24 23 21 20 19 19 17 17 17 15 13 14 14 13 12 10 9 10 11 13 12 9 8 8 7 6 6 6 8 10 10 9 8 8 8 8 8 8 8 9 9 9 10 11 12 13 13 13 14 16 15 15 17 21 22
34 32 30 29 28 26 25 24 23 22 20 18 18 17 17 17 16 15 16 16 14 13 11 9 8 10 13 13 10 9 10 8 6 6 6 8 10 10 10 9 8 8 9 9 10 9 8 9 9 10 11 13 13 12 11 12 14 14 14 17 22 23
35 33 31 29 28 26 25 24 23 22 19 18 17 16 15 15 15 15 16 16 14 13 12 10 9 9 12 13 11 10 11 9 7 5 5 8 10 10 10 9 9 10 10 11 11 10 10 11 11 11 11 12 14 13 11 11 12 13 14 18 22 24
35 33 31 30 28 26 25 24 23 21 19 16 15 14 14 15 15 15 15 14 13 12 12 11 10 9 9 10 11 12 11 10 8 6 4 7 10 11 10 9 10 11 12 14 14 14 13 12 11 10 10 12 14 14 12 11 11 12 17 21 23 25
35 33 32 30 28 26 26 25 23 21 18 15 13 13 14 14 14 14 15 14 12 11 11 11 11 10 9 9 13 15 14 11 10 7 4 7 11 11 10 10 11 12 14 15 16 16 15 14 13 11 11 12 14 14 13 12 11 13 18 21 20 21
35 34 33 30 28 27 28 27 23 21 18 15 14 14 15 15 14 14 14 12 10 10 10 11 11 11 10 11 15 17 15 13 10 6 5 9 12 12 11 11 12 12 13 15 15 15 15 15 15 14 14 14 15 15 14 13 13 16 19 19 17 17
34 33 32 29 28 29 28 25 23 20 18 15 14 14 15 16 16 14 12 9 8 8 9 11 12 12 12 12 15 16 14 12 9 7 9 10 12 12 11 11 13 14 14 14 14 14 15 15 15 15 16 17 17 17 16 15 15 16 16 15 15 15
Wind_Direction
164 163 162 158 157 158 159 165 167 166 165 170 175 175 172 168 168 169 171 172 170 167 159 150 140 135 134 132 128 121 115 110 107 102 98 96 97 99 100 106 110 119 124 130 139 150 161 164 163 161 158 155 162 174 166 128 98 92 45 360 352 358
166 164 163 161 162 163 164 168 169 169 171 177 181 179 174 169 170 173 177 177 175 172 164 154 143 142 143 138 131 126 119 113 110 106 103 99 99 101 102 108 107 114 124 133 132 134 148 156 160 162 156 150 155 171 164 119 83 82 36 352 341 342
168 166 165 165 167 168 169 171 170 173 177 182 182 177 172 172 175 180 181 179 176 172 166 158 148 147 147 142 135 129 126 124 123 119 116 111 109 109 111 117 115 118 123 131 132 131 141 146 153 161 159 150 137 149 164 129 84 56 5 347 337 335
171 169 169 170 172 173 174 173 170 177 184 185 181 174 173 177 181 185 183 180 177 173 168 159 152 154 151 144 138 136 139 141 143 139 134 132 130 129 128 128 126 134 131 133 134 131 134 138 151 163 167 161 144 133 153 136 97 47 353 343 335 333
174 171 173 176 177 178 179 174 171 180 187 186 181 174 176 183 186 189 186 181 178 174 169 161 156 159 152 145 146 148 150 146 147 147 146 150 149 145 137 128 130 141 141 142 140 134 136 138 148 165 173 171 160 147 152 162 146 141 338 337 329 329
176 174 177 180 180 182 183 176 172 182 187 186 181 176 181 189 192 193 187 183 181 176 171 166 165 166 157 155 156 154 151 143 146 147 150 158 161 159 150 139 138 144 147 150 149 144 150 155 154 161 169 174 177 175 181 197 193 189 203 252 287 298
181 181 182 182 182 184 185 180 173 181 188 187 181 179 187 192 193 193 188 186 184 181 179 176 177 175 166 165 161 151 146 141 152 156 159 166 165 169 171 162 154 152 152 154 158 158 169 181 175 166 168 178 188 190 191 207 214 211 218 243 263 268
188 187 187 185 185 183 183 180 173 180 189 186 182 184 188 189 191 191 190 190 188 187 187 186 189 185 174 173 165 152 153 156 175 183 181 176 170 180 185 180 175 167 162 165 173 178 186 193 188 179 175 184 196 199 199 214 226 227 229 239 257 259
192 188 190 189 188 182 179 179 172 178 185 184 185 188 187 187 193 194 192 193 194 199 199 193 194 197 188 182 174 169 180 182 185 191 190 189 186 186 190 187 184 183 183 189 193 195 200 200 194 186 180 193 204 206 210 218 219 224 234 240 255 262
194 190 192 191 189 181 180 179 173 173 178 182 186 190 189 191 197 197 194 195 203 211 206 196 196 204 199 187 187 197 203 190 186 197 200 209 206 189 194 191 185 195 206 205 204 202 201 203 203 196 194 205 210 211 220 222 215 217 225 230 241 249
195 191 192 191 188 184 183 179 173 172 176 180 185 191 193 196 201 198 197 200 204 206 199 197 201 207 208 200 204 215 216 210 211 208 205 211 205 197 205 197 189 202 217 216 216 216 204 206 213 208 209 219 218 217 222 226 227 223 224 225 231 236
190 185 187 189 188 185 183 178 174 174 176 180 185 191 195 198 202 202 204 204 205 211 207 208 213 213 215 219 218 218 219 220 216 201 198 208 206 209 209 198 193 193 209 224 222 218 205 201 215 211 213 223 220 216 218 228 234 229 228 226 224 223
183 180 185 188 187 184 182 178 174 174 177 183 187 189 194 198 201 206 209 209 212 220 220 224 232 226 218 223 228 228 230 225 210 198 200 204 204 208 207 194 189 184 195 218 216 208 196 186 206 211 217 224 215 199 199 225 232 224 214 210 212 213
179 179 183 185 186 184 181 178 173 175 178 182 186 186 191 196 199 206 207 210 216 220 223 230 234 228 223 227 232 235 238 228 206 196 197 200 200 205 206 191 178 180 191 205 213 207 193 186 203 209 218 221 204 179 185 205 213 207 194 190 197 199
177 179 180 184 188 185 181 177 174 176 175 176 181 183 191 195 198 204 206 210 217 221 228 230 224 224 227 225 226 227 227 221 206 196 190 192 198 202 204 192 180 181 184 190 200 193 174 182 201 196 203 205 195 184 180 151 172 188 184 176 179 180
175 178 179 183 187 185 183 179 175 175 175 176 181 186 191 192 196 204 205 209 216 223 226 219 214 220 219 216 218 213 211 214 211 203 193 190 195 199 200 194 193 191 185 187 182 169 163 172 184 178 177 184 186 181 112 119 150 179 174 162 163 166
175 177 178 182 183 184 183 178 175 177 181 185 185 187 190 189 194 203 206 210 217 220 211 201 202 205 203 207 208 205 208 211 208 209 201 193 194 197 198 195 196 192 186 189 177 168 172 171 163 160 158 168 179 171 105 131 142 163 167 158 162 167
176 177 178 180 181 181 180 176 175 180 185 186 182 181 185 186 188 197 203 209 213 207 188 184 193 191 189 195 198 201 206 192 196 208 200 194 197 197 192 187 190 188 184 187 180 176 177 172 159 151 148 146 159 157 145 148 139 145 155 154 164 173
176 177 177 177 180 180 177 174 175 179 180 181 180 178 178 176 176 184 193 198 198 190 179 183 188 180 173 176 183 193 202 193 195 200 192 190 191 191 185 179 183 186 183 179 172 174 178 173 159 152 151 142 137 141 144 146 144 148 151 153 164 174
176 175 174 175 178 178 175 173 174 174 174 177 175 170 167 168 169 174 180 182 180 177 176 179 177 168 165 170 178 187 198 200 195 193 192 189 184 181 177 175 183 188 184 178 165 162 171 173 159 148 148 146 139 139 141 145 154 159 156 157 165 173
174 175 175 176 177 176 175 174 173 171 170 171 167 162 159 159 162 166 173 175 169 166 163 162 163 165 166 173 181 187 195 193 185 182 181 181 179 176 174 177 187 187 182 181 173 166 169 176 168 152 146 147 143 139 142 148 156 163 161 163 172 177
176 177 179 181 179 177 177 175 172 169 166 165 164 162 158 156 162 167 169 166 163 167 163 161 164 163 162 167 170 174 181 178 174 170 167 172 175 178 181 185 190 189 182 178 178 177 175 179 182 168 157 151 146 142 143 147 151 160 166 170 179 183
179 177 179 182 181 178 175 171 170 167 164 165 163 161 162 162 164 165 164 164 168 171 167 164 164 162 160 157 153 152 157 161 165 167 168 173 177 180 186 192 196 195 189 180 178 179 178 182 186 176 166 159 154 148 141 145 150 155 169 176 182 187
179 176 176 180 181 176 169 168 169 167 166 168 166 166 172 169 163 162 161 161 165 167 165 166 164 164 162 156 151 151 150 152 154 157 162 166 173 180 187 197 204 202 198 190 187 185 179 186 197 186 173 166 162 155 147 155 159 153 162 172 178 188
179 176 175 177 176 170 167 170 171 165 165 169 169 175 181 175 170 169 166 162 163 165 169 169 162 159 164 165 163 162 162 163 159 154 154 155 161 174 183 194 202 201 199 194 196 199 188 185 195 196 188 173 169 170 163 162 159 150 158 167 169 181
179 178 175 175 172 168 170 175 175 171 174 177 176 181 188 184 180 184 181 171 163 165 173 167 153 153 170 168 161 156 156 162 167 165 166 166 164 170 177 181 184 185 186 187 196 209 200 185 182 191 199 191 190 205 175 163 156 148 152 165 165 163
178 177 175 174 173 172 174 178 182 183 185 184 179 183 194 194 186 185 181 170 162 161 169 173 173 211 180 160 148 141 139 139 146 161 175 177 170 170 175 173 172 174 177 183 190 204 205 190 184 189 197 200 209 221 188 173 167 157 150 154 159 150
178 176 177 177 177 178 178 180 186 188 185 183 181 181 183 182 178 176 173 171 171 167 172 198 217 200 171 159 145 136 136 133 128 135 155 169 170 170 172 173 179 180 177 178 181 193 203 194 190 192 193 199 198 186 186 186 182 172 155 146 146 144
179 179 179 179 180 182 182 183 186 186 182 182 186 181 171 169 168 169 172 174 178 180 186 193 180 162 165 170 162 147 142 135 123 124 143 164 170 165 166 172 181 183 177 177 178 178 188 191 193 198 197 193 177 168 174 179 183 182 162 147 145 144
181 181 181 181 182 183 185 188 187 186 184 184 187 181 167 163 163 168 176 177 180 188 186 165 145 151 166 177 174 157 148 142 133 126 138 157 163 159 162 169 173 176 172 174 173 167 172 180 183 194 199 187 171 167 171 176 178 177 163 151 147 143
184 184 183 185 186 185 187 191 191 191 192 190 188 182 171 169 171 176 180 179 180 181 173 158 151 154 164 174 169 154 153 154 145 132 135 147 151 151 154 159 161 161 158 158 158 159 166 172 172 180 188 185 180 178 179 177 174 174 168 156 147 141
187 187 187 190 190 187 189 193 196 198 200 196 191 184 177 175 179 182 178 176 176 176 175 179 178 164 160 168 172 163 167 177 168 154 151 149 147 145 145 151 158 156 154 151 149 152 155 158 164 170 175 181 188 192 193 179 168 172 176 162 149 140
189 189 189 193 193 191 192 197 201 204 203 196 189 185 183 182 185 185 178 175 178 184 189 191 189 176 164 168 179 181 184 192 191 184 170 152 145 140 139 144 150 151 152 149 143 143 143 147 155 164 168 174 183 188 186 172 162 166 168 159 149 140
191 191 190 194 195 194 195 198 201 203 199 191 187 188 190 189 188 184 181 182 188 197 203 197 190 188 180 176 182 187 189 192 193 199 193 161 149 142 140 141 141 142 143 141 139 138 140 141 144 154 163 166 174 179 174 164 163 164 162 158 152 143
193 192 192 194 194 194 193 193 195 196 193 191 190 189 188 187 187 185 187 191 194 197 199 193 184 184 187 183 181 184 188 190 196 204 193 165 155 150 150 147 145 146 142 139 139 138 135 132 128 132 142 152 162 165 161 159 161 161 159 157 154 148
194 194 193 192 192 191 189 189 190 190 191 193 190 183 180 183 186 188 190 189 180 174 173 169 164 163 164 168 175 183 189 192 195 189 158 156 157 157 160 158 155 155 149 145 146 141 132 127 123 122 127 137 146 149 150 152 154 155 155 154 154 153
193 194 194 192 189 187 188 189 187 186 190 191 185 180 178 180 182 183 185 183 170 158 154 154 152 152 151 155 167 178 185 184 176 153 137 144 147 148 153 158 161 163 160 158 155 144 133 127 125 124 125 130 136 142 144 145 147 149 153 158 162 161
Height
1520 1521 1523 1524 1526 1527 1528 1529 1530 1532 1533 1533 1534 1534 1535 1536 1537 1537 1538 1538 1539 1540 1540 1541 1542 1542 1543 1543 1544 1545 1546 1546 1547 1548 1548 1549 1549 1549 1549 1550 1550 1550 1551 1551 1552 1553 1554 1555 1557 1558 1559 1559 1558 1559 1560 1560 1561 1562 1563 1563 1563 1563
1521 1522 1524 1525 1526 1527 1528 1529 1530 1531 1532 1532 1532 1533 1534 1536 1537 1537 1538 1538 1539 1540 1540 1541 1542 1542 1543 1543 1544 1545 1546 1546 1547 1548 1549 1549 1549 1549 1550 1550 1550 1550 1551 1551 1552 1553 1554 1555 1556 1557 1558 1558 1558 1559 1560 1560 1561 1563 1563 1563 1563 1563
1522 1524 1525 1525 1526 1527 1527 1528 1530 1530 1530 1531 1532 1533 1534 1535 1536 1537 1537 1538 1539 1539 1540 1541 1542 1542 1543 1544 1544 1545 1546 1546 1547 1548 1548 1549 1549 1549 1550 1550 1550 1551 1551 1552 1553 1553 1554 1555 1556 1557 1558 1558 1558 1558 1559 1560 1561 1563 1563 1564 1564 1563
1524 1525 1525 1526 1526 1526 1527 1528 1530 1530 1530 1531 1532 1533 1534 1535 1535 1536 1537 1538 1538 1539 1540 1541 1541 1542 1543 1544 1544 1545 1545 1546 1547 1547 1548 1549 1549 1549 1550 1550 1550 1551 1551 1552 1553 1554 1554 1555 1556 1557 1557 1557 1558 1559 1559 1560 1561 1562 1563 1564 1564 1564
1525 1526 1526 1526 1526 1527 1528 1529 1530 1530 1530 1532 1533 1533 1534 1534 1535 1536 1537 1537 1538 1539 1540 1541 1541 1542 1543 1543 1544 1545 1545 1546 1546 1546 1547 1548 1549 1549 1550 1550 1550 1551 1551 1552 1553 1554 1554 1555 1555 1556 1557 1557 1558 1558 1559 1559 1559 1560 1562 1563 1564 1564
1525 1526 1526 1526 1527 1528 1529 1530 1531 1531 1531 1532 1533 1534 1534 1534 1535 1536 1537 1537 1538 1539 1540 1540 1541 1542 1542 1543 1543 1544 1544 1545 1546 1546 1547 1548 1549 1550 1550 1550 1551 1551 1551 1552 1553 1553 1554 1554 1555 1555 1556 1556 1556 1557 1557 1558 1557 1558 1559 1560 1562 1562
1524 1524 1525 1526 1526 1527 1530 1531 1532 1532 1532 1533 1534 1534 1534 1535 1535 1536 1537 1537 1538 1539 1540 1540 1541 1542 1542 1542 1543 1544 1544 1545 1546 1546 1547 1548 1549 1550 1550 1550 1551 1551 1552 1552 1553 1553 1553 1554 1555 1555 1555 1555 1556 1557 1558 1558 1558 1557 1557 1557 1559 1560
1522 1522 1523 1525 1526 1527 1529 1531 1532 1532 1532 1532 1533 1534 1534 1535 1536 1536 1537 1538 1538 1539 1540 1540 1541 1541 1542 1542 1543 1544 1544 1545 1545 1546 1547 1548 1549 1549 1550 1550 1551 1551 1552 1552 1552 1552 1553 1554 1554 1554 1555 1555 1556 1557 1558 1558 1558 1558 1557 1556 1558 1560
1521 1522 1523 1524 1525 1526 1528 1529 1531 1531 1531 1531 1532 1533 1534 1535 1536 1536 1537 1538 1539 1539 1540 1540 1541 1541 1542 1542 1543 1544 1544 1545 1545 1546 1547 1547 1548 1549 1549 1550 1550 1551 1551 1552 1552 1552 1553 1553 1553 1554 1555 1555 1556 1557 1558 1558 1558 1558 1557 1556 1558 1561
1522 1523 1523 1523 1524 1525 1527 1527 1529 1530 1530 1531 1531 1532 1534 1535 1535 1536 1537 1538 1539 1539 1540 1540 1541 1541 1542 1542 1543 1543 1544 1544 1545 1545 1546 1547 1547 1548 1549 1549 1550 1551 1551 1552 1552 1552 1553 1553 1553 1554 1556 1556 1556 1557 1558 1558 1557 1557 1556 1556 1557 1560
1523 1524 1523 1523 1523 1524 1525 1526 1528 1529 1529 1530 1531 1533 1533 1534 1535 1535 1536 1538 1538 1539 1540 1540 1541 1541 1541 1542 1542 1543 1543 1544 1544 1545 1545 1546 1547 1548 1548 1549 1550 1551 1551 1552 1552 1552 1553 1553 1553 1554 1556 1556 1556 1557 1557 1557 1557 1557 1556 1556 1557 1559
1521 1522 1522 1523 1523 1524 1525 1526 1527 1528 1529 1530 1531 1532 1533 1534 1535 1535 1536 1537 1538 1539 1540 1540 1540 1541 1541 1541 1542 1542 1543 1543 1544 1545 1545 1546 1546 1547 1547 1548 1549 1550 1551 1552 1552 1552 1553 1553 1553 1555 1556 1556 1556 1557 1556 1556 1556 1556 1556 1556 1557 1558
1519 1521 1521 1522 1522 1524 1525 1526 1527 1528 1529 1530 1530 1532 1533 1534 1535 1535 1536 1537 1537 1538 1539 1540 1540 1540 1540 1541 1541 1542 1543 1543 1544 1544 1545 1545 1546 1546 1547 1548 1549 1550 1550 1551 1551 1552 1553 1553 1553 1555 1556 1556 1556 1556 1556 1556 1556 1556 1556 1556 1557 1558
1519 1519 1520 1521 1522 1523 1525 1526 1527 1528 1529 1529 1530 1532 1533 1534 1534 1535 1535 1536 1536 1537 1538 1539 1539 1539 1540 1540 1541 1541 1542 1542 1543 1543 1544 1545 1545 1546 1547 1548 1549 1549 1550 1550 1550 1551 1552 1552 1553 1554 1555 1556 1556 1556 1556 1556 1556 1556 1556 1556 1557 1558
1518 1518 1519 1521 1522 1523 1524 1526 1527 1527 1529 1530 1531 1532 1532 1533 1534 1534 1535 1535 1536 1537 1537 1538 1538 1539 1539 1540 1540 1541 1541 1542 1542 1543 1543 1544 1545 1546 1547 1548 1549 1549 1549 1549 1550 1551 1552 1552 1553 1554 1555 1555 1556 1556 1556 1556 1556 1556 1556 1556 1557 1558
1517 1518 1518 1520 1521 1523 1524 1525 1526 1527 1528 1529 1530 1531 1532 1533 1533 1534 1534 1535 1535 1536 1537 1537 1537 1538 1538 1539 1540 1540 1541 1541 1542 1542 1543 1544 1545 1546 1547 1548 1549 1549 1549 1549 1549 1550 1551 1552 1552 1553 1554 1555 1555 1556 1556 1556 1555 1556 1556 1556 1557 1558
1516 1517 1518 1520 1521 1522 1524 1525 1526 1527 1528 1529 1530 1531 1532 1533 1533 1533 1534 1534 1534 1535 1536 1536 1537 1537 1538 1539 1539 1540 1540 1541 1541 1542 1543 1543 1544 1545 1546 1547 1548 1549 1549 1549 1550 1550 1551 1551 1552 1553 1553 1554 1555 1555 1556 1556 1556 1556 1556 1556 1557 1558
1516 1517 1519 1520 1521 1523 1524 1526 1527 1527 1528 1529 1530 1531 1532 1532 1532 1533 1533 1533 1534 1534 1535 1536 1537 1537 1537 1538 1539 1539 1540 1541 1541 1542 1542 1543 1544 1545 1546 1547 1548 1549 1549 1549 1550 1550 1551 1551 1551 1552 1552 1553 1554 1554 1555 1556 1556 1557 1557 1557 1558 1559
1516 1517 1519 1521 1522 1523 1524 1526 1527 1527 1528 1529 1530 1531 1531 1532 1532 1532 1533 1533 1533 1534 1535 1536 1537 1537 1537 1538 1539 1539 1539 1540 1541 1542 1542 1543 1544 1545 1546 1547 1548 1549 1549 1549 1550 1550 1551 1551 1551 1551 1552 1552 1553 1554 1555 1555 1556 1557 1557 1557 1558 1559
1515 1516 1518 1520 1521 1522 1524 1525 1526 1527 1528 1529 1530 1531 1531 1531 1532 1532 1532 1533 1534 1535 1535 1536 1537 1537 1537 1538 1539 1539 1539 1540 1541 1542 1543 1544 1544 1545 1546 1547 1548 1549 1550 1549 1549 1550 1551 1550 1550 1551 1552 1552 1553 1554 1555 1555 1556 1556 1557 1558 1559 1560
1514 1516 1517 1519 1520 1522 1523 1524 1525 1526 1527 1529 1530 1531 1531 1531 1531 1532 1532 1533 1534 1534 1535 1536 1537 1537 1538 1538 1539 1539 1540 1541 1541 1542 1543 1544 1545 1545 1547 1548 1548 1549 1550 1550 1549 1550 1550 1551 1551 1551 1551 1552 1553 1554 1555 1555 1556 1556 1557 1558 1559 1560
1513 1515 1517 1519 1520 1521 1523 1524 1524 1526 1528 1529 1530 1530 1531 1531 1531 1532 1533 1533 1534 1534 1535 1536 1537 1537 1538 1538 1539 1540 1541 1541 1542 1543 1543 1544 1545 1546 1546 1547 1548 1549 1550 1549 1549 1550 1550 1551 1551 1551 1552 1552 1553 1554 1555 1555 1556 1556 1557 1558 1559 1560
1513 1515 1517 1519 1521 1522 1523 1524 1526 1527 1528 1529 1530 1531 1531 1531 1532 1532 1533 1534 1534 1535 1535 1536 1536 1537 1537 1538 1539 1540 1541 1541 1542 1543 1544 1544 1545 1546 1546 1547 1548 1549 1549 1549 1549 1549 1550 1551 1551 1552 1552 1552 1553 1554 1555 1556 1556 1557 1557 1558 1559 1560
1513 1516 1518 1520 1521 1522 1523 1525 1526 1528 1529 1529 1530 1531 1531 1532 1533 1533 1533 1534 1534 1535 1535 1536 1536 1537 1538 1539 1540 1540 1541 1541 1542 1543 1544 1545 1545 1545 1546 1547 1547 1548 1549 1549 1549 1549 1550 1551 1551 1552 1552 1552 1553 1553 1554 1555 1556 1556 1558 1558 1559 1560
1514 1516 1518 1519 1521 1522 1523 1524 1526 1527 1529 1529 1529 1530 1531 1532 1533 1533 1534 1534 1535 1535 1536 1536 1537 1538 1539 1539 1540 1540 1541 1542 1542 1543 1544 1544 1545 1545 1546 1546 1547 1548 1548 1549 1549 1549 1550 1551 1551 1552 1552 1552 1552 1553 1553 1554 1555 1556 1558 1558 1559 1560
1513 1515 1517 1519 1521 1522 1522 1523 1524 1526 1527 1528 1529 1530 1531 1531 1533 1534 1534 1535 1535 1536 1536 1537 1537 1538 1539 1540 1540 1540 1541 1542 1542 1543 1544 1544 1545 1545 1546 1547 1547 1547 1548 1548 1548 1549 1550 1550 1551 1552 1552 1551 1551 1551 1551 1553 1554 1556 1558 1559 1559 1560
1513 1515 1517 1519 1520 1522 1523 1523 1524 1525 1526 1528 1529 1530 1531 1532 1533 1534 1534 1535 1536 1537 1537 1538 1538 1539 1539 1539 1540 1541 1541 1542 1543 1543 1544 1545 1545 1546 1546 1547 1547 1547 1547 1548 1548 1549 1549 1550 1551 1551 1551 1551 1551 1551 1551 1552 1553 1554 1556 1558 1559 1560
1513 1515 1517 1519 1520 1522 1522 1524 1525 1526 1528 1529 1530 1531 1532 1533 1534 1535 1535 1536 1537 1537 1538 1539 1539 1540 1540 1540 1540 1541 1541 1542 1543 1543 1544 1545 1546 1546 1547 1547 1547 1547 1547 1548 1548 1548 1549 1550 1551 1551 1551 1551 1552 1552 1552 1553 1553 1552 1553 1556 1558 1559
1514 1515 1517 1519 1520 1521 1523 1524 1525 1527 1528 1529 1530 1531 1532 1533 1534 1535 1536 1537 1538 1538 1539 1540 1540 1540 1540 1540 1540 1541 1541 1542 1543 1543 1544 1545 1546 1546 1547 1547 1547 1547 1547 1548 1548 1548 1549 1550 1550 1551 1551 1551 1552 1552 1553 1553 1553 1553 1553 1554 1556 1558
1514 1515 1517 1519 1520 1522 1523 1524 1525 1526 1528 1529 1529 1531 1532 1533 1535 1535 1537 1538 1538 1539 1539 1540 1540 1540 1541 1541 1541 1541 1541 1542 1542 1543 1544 1544 1545 1546 1546 1547 1547 1547 1548 1548 1548 1548 1549 1550 1550 1550 1551 1551 1551 1552 1552 1552 1553 1553 1554 1554 1555 1557
1513 1516 1517 1519 1520 1522 1523 1524 1525 1526 1527 1528 1529 1530 1532 1533 1534 1535 1536 1537 1538 1539 1540 1540 1541 1541 1541 1541 1541 1541 1541 1542 1542 1543 1543 1544 1545 1546 1546 1547 1547 1547 1547 1548 1548 1549 1549 1550 1550 1550 1551 1551 1552 1552 1552 1552 1552 1553 1554 1554 1555 1557
1513 1515 1517 1519 1520 1522 1523 1524 1526 1527 1528 1529 1530 1531 1532 1533 1534 1535 1536 1537 1537 1538 1539 1540 1541 1541 1542 1542 1542 1542 1542 1542 1542 1543 1544 1544 1545 1546 1546 1546 1546 1547 1547 1548 1549 1549 1549 1550 1550 1550 1551 1552 1553 1553 1554 1554 1554 1554 1554 1555 1555 1557
1511 1514 1516 1518 1520 1522 1524 1525 1526 1527 1528 1530 1531 1532 1533 1534 1535 1536 1536 1537 1537 1538 1539 1540 1540 1541 1542 1542 1542 1543 1543 1543 1543 1543 1544 1545 1545 1546 1546 1546 1547 1547 1547 1548 1549 1549 1550 1550 1550 1550 1550 1551 1552 1554 1555 1555 1555 1555 1556 1556 1556 1557
1511 1513 1515 1518 1520 1522 1524 1525 1527 1528 1529 1531 1532 1533 1534 1535 1536 1536 1537 1538 1539 1539 1540 1540 1541 1541 1542 1542 1543 1543 1543 1544 1543 1544 1545 1545 1546 1546 1547 1547 1547 1547 1548 1548 1549 1549 1550 1550 1550 1550 1550 1551 1553 1554 1556 1556 1557 1557 1557 1557 1557 1557
1510 1512 1515 1517 1519 1521 1523 1525 1526 1528 1530 1531 1532 1534 1535 1536 1536 1537 1538 1539 1540 1540 1540 1541 1541 1542 1542 1542 1543 1543 1544 1544 1544 1545 1545 1546 1547 1547 1548 1548 1548 1548 1549 1549 1550 1550 1550 1550 1550 1550 1551 1551 1553 1554 1556 1557 1558 1559 1559 1559 1559 1559
1509 1512 1514 1517 1519 1521 1523 1524 1526 1528 1530 1531 1533 1534 1535 1536 1537 1538 1539 1540 1540 1541 1541 1542 1542 1543 1543 1543 1544 1544 1544 1545 1545 1545 1546 1546 1547 1548 1548 1549 1549 1549 1550 1550 1551 1551 1551 1551 1551 1551 1551 1552 1553 1555 1557 1558 1559 1560 1561 1561 1561 1562
1509 1512 1514 1517 1519 1521 1522 1524 1526 1528 1530 1531 1532 1533 1534 1536 1537 1538 1539 1540 1541 1541 1542 1543 1543 1544 1544 1544 1545 1545 1545 1546 1546 1546 1547 1547 1548 1549 1549 1550 1550 1550 1551 1552 1552 1552 1552 1552 1552 1553 1553 1553 1554 1556 1557 1559 1561 1562 1563 1563 1563 1564